DateTimeUTC,F1_A11,F1_S11,BsB_S11,BsG_S11,BsR_S11,BbsB_S11,BbsG_S11,BbsR_S11,BaB_A11,BaG_A11,BaR_A11,Tu_S11,T_S11,Uu_S11,U_S11,P_S11,T1_A11
2021-07-10T23:00:00Z,00000200,20000000,,,,,,,-000.29,0000.05,-000.26,18.9,25.5,11.8,07.9,0676.6,31.0
2021-07-10T23:01:00Z,00000200,20000000,,,,,,,0000.06,-000.09,-000.33,18.9,25.5,11.8,07.9,0676.6,31.0
2021-07-10T23:02:00Z,00000200,20000000,,,,,,,0000.12,0000.13,0000.23,18.9,25.5,11.8,07.9,0676.6,31.0
2021-07-10T23:03:00Z,00000200,60000000,,,,,,,0000.11,0000.10,0000.03,18.9,25.5,11.8,07.9,0676.6,31.0
2021-07-10T23:04:00Z,00000200,40000000,0001.70,0000.69,0000.37,0000.61,-000.02,0000.04,0000.08,0000.07,0000.25,19.0,25.3,11.7,08.0,0677.6,31.0
2021-07-10T23:05:00Z,00000200,00000000,0000.53,0000.70,0000.42,-000.36,0000.29,-000.11,0000.36,0000.06,-000.16,19.1,25.3,11.8,08.1,0677.6,31.0
2021-07-10T23:06:00Z,00000200,00000000,0001.09,0000.53,0000.47,0000.85,-000.09,0000.13,-000.24,0000.01,0000.30,19.1,25.3,11.8,08.1,0677.6,31.0
2021-07-10T23:07:00Z,00000200,00000000,0001.61,0000.44,0000.49,0000.51,0000.00,-000.04,0000.20,0000.32,0000.09,19.1,25.3,11.9,08.1,0677.6,31.0
2021-07-10T23:08:00Z,00000200,00000000,0001.52,0000.49,0000.20,0000.29,-000.26,0000.04,0000.05,-000.00,-000.11,19.1,25.3,11.9,08.1,0677.6,31.0
2021-07-10T23:09:00Z,00000200,00000000,0001.06,0000.51,0000.47,0000.34,-000.12,-000.15,0000.18,-000.16,-000.07,19.1,25.2,11.8,08.1,0677.6,31.0
2021-07-10T23:10:00Z,00000200,00000000,0000.83,0000.84,0000.54,0000.18,0000.19,0000.30,0000.25,0000.06,0000.09,19.1,25.2,11.8,08.1,0677.6,31.0
2021-07-10T23:11:00Z,00000200,00000000,0001.48,0000.69,-000.01,0000.55,0000.40,0000.02,-000.01,0000.44,-000.08,19.1,25.3,11.8,08.1,0677.6,31.0
2021-07-10T23:12:00Z,00000200,00000000,0001.20,0000.58,0000.16,0000.26,0000.04,-000.39,-000.26,-000.05,0000.06,19.1,25.2,11.9,08.1,0677.7,31.0
2021-07-10T23:13:00Z,00000200,00000000,0001.31,0000.58,0000.36,0000.02,0000.23,0000.04,0000.35,-000.10,0000.43,19.1,25.2,11.8,08.1,0677.6,31.0
2021-07-10T23:14:00Z,00000200,00000000,0001.51,0000.52,0000.30,0000.60,0000.20,0000.15,0000.18,0000.28,0000.08,19.1,25.2,11.8,08.1,0677.6,31.0
2021-07-10T23:15:00Z,00000200,00000000,0001.87,0000.77,0000.65,0000.17,0000.16,0000.12,0000.15,0000.27,-000.06,19.1,25.2,11.8,08.1,0677.6,31.0
2021-07-10T23:16:00Z,00000200,00000000,0001.75,0000.38,0000.61,0000.72,0000.31,0000.13,-000.05,0000.19,-000.21,19.1,25.2,11.8,08.1,0677.6,31.0
2021-07-10T23:17:00Z,00000200,00000000,0001.23,0000.47,0000.53,0000.20,0000.39,0000.13,0000.08,-000.38,0000.55,19.1,25.2,11.9,08.2,0677.7,31.0
2021-07-10T23:18:00Z,00000200,00000000,0000.66,0000.50,0000.10,0000.86,0000.02,-000.01,-000.01,0000.16,0000.12,19.1,25.2,11.8,08.1,0677.6,31.0
2021-07-10T23:19:00Z,00000200,00000000,0000.44,0000.85,0000.15,0000.22,0000.00,0000.25,0000.19,-000.22,-000.24,19.1,25.2,11.8,08.1,0677.6,31.0
2021-07-10T23:20:00Z,00000200,00000000,0000.86,0000.66,0000.09,0000.50,-000.25,0000.13,-000.10,0000.23,0000.24,19.1,25.2,11.7,08.0,0677.6,31.0
2021-07-10T23:21:00Z,00000200,00000000,0000.82,0000.60,0000.31,0000.28,0000.09,-000.01,0000.08,0000.29,-000.03,19.1,25.2,11.7,08.0,0677.6,31.0
2021-07-10T23:22:00Z,00000200,00000000,0001.36,0000.45,0000.68,0000.77,-000.03,0000.18,0000.23,-000.06,0000.04,19.1,25.2,11.7,08.1,0677.6,31.1
2021-07-10T23:23:00Z,00000200,00000000,0000.97,0000.58,0000.20,0000.32,-000.17,0000.00,-000.11,0000.05,0000.06,19.1,25.2,11.7,08.0,0677.6,31.0
2021-07-10T23:24:00Z,00000200,00000000,0000.76,0000.23,0000.28,0000.13,0000.23,0000.21,0000.10,0000.19,0000.12,19.1,25.2,11.6,08.0,0677.6,31.1
2021-07-10T23:25:00Z,00000200,00000000,0000.60,0000.81,0000.42,0000.25,0000.15,0000.39,0000.24,-000.22,-000.04,19.1,25.2,11.7,08.1,0677.6,31.0
2021-07-10T23:26:00Z,00000200,00000000,0000.59,0000.45,0000.35,0000.62,0000.09,-000.02,-000.29,0000.12,-000.01,19.1,25.2,11.6,08.0,0677.6,31.0
2021-07-10T23:27:00Z,00000200,00000000,0000.78,0000.45,0000.23,0000.39,0000.12,-000.05,0000.25,0000.01,0000.08,19.1,25.2,11.6,08.0,0677.6,31.0
2021-07-10T23:28:00Z,00000200,00000000,0000.77,0000.51,0000.46,-000.20,-000.03,0000.35,0000.02,0000.13,0000.06,19.1,25.2,11.6,08.0,0677.6,31.0
2021-07-10T23:29:00Z,00000200,00000000,0000.64,0000.51,0000.23,0000.66,-000.20,-000.41,0000.10,0000.19,-000.11,19.1,25.2,11.5,07.9,0677.6,31.1
2021-07-10T23:30:00Z,00000200,00000000,0000.80,0000.39,0000.38,0000.29,0000.37,0000.15,-000.10,-000.21,0000.10,19.1,25.2,11.4,07.9,0677.6,31.0
2021-07-10T23:31:00Z,00000200,00000000,0000.86,0000.47,0000.30,-000.06,0000.14,0000.12,-000.03,0000.21,-000.04,19.1,25.2,11.5,07.9,0677.6,31.0
2021-07-10T23:32:00Z,00000200,00000000,0000.80,-000.11,0000.01,0000.51,-000.04,-000.34,0000.51,0000.01,0000.13,19.1,25.2,11.4,07.9,0677.6,31.0
2021-07-10T23:33:00Z,00000200,00000000,0001.63,0000.37,0000.09,0000.41,0000.16,0000.01,-000.16,-000.12,0000.03,19.1,25.2,11.4,07.9,0677.6,31.1
2021-07-10T23:34:00Z,00000200,00000000,0000.19,0000.18,0000.02,-000.15,0000.01,0000.12,-000.08,0000.02,0000.01,19.1,25.2,11.4,07.9,0677.6,31.0
2021-07-10T23:35:00Z,00000200,00000000,0000.39,0000.19,0000.07,-000.00,0000.05,-000.13,-000.14,0000.10,-000.12,19.1,25.2,11.3,07.8,0677.6,31.0
2021-07-10T23:36:00Z,00000200,00000000,0000.66,0000.07,-000.10,-000.12,-000.09,-000.10,0000.21,0000.15,0000.38,19.1,25.2,11.3,07.8,0677.6,31.0
2021-07-10T23:37:00Z,00000200,00000000,0000.66,0000.20,0000.11,0000.02,-000.01,0000.03,-000.12,0000.02,0000.07,19.1,25.2,11.3,07.8,0677.6,31.0
2021-07-10T23:38:00Z,00000200,00000000,0000.81,-000.08,0000.46,-000.27,-000.02,0000.14,0000.22,0000.24,0000.01,19.1,25.2,11.2,07.7,0677.6,31.0
2021-07-10T23:39:00Z,00000200,00000000,0000.62,-000.14,0000.09,0000.42,0000.21,-000.03,-000.10,-000.32,-000.17,19.1,25.2,11.1,07.7,0677.6,31.0
2021-07-10T23:40:00Z,00000200,00000000,0000.18,0000.34,0000.10,0000.44,0000.17,0000.14,-000.30,-000.14,-000.24,19.1,25.2,11.1,07.7,0677.6,31.0
2021-07-10T23:41:00Z,00000200,00000000,0000.84,0000.13,0000.13,0000.70,0000.02,0000.05,-000.03,0000.18,0000.33,19.1,25.2,11.1,07.7,0677.6,31.0
2021-07-10T23:42:00Z,00000200,00000000,-000.09,0000.01,0000.23,-000.00,0000.17,0000.08,-000.02,-000.21,-000.39,19.1,25.2,11.0,07.6,0677.6,31.0
2021-07-10T23:43:00Z,00000200,00000000,0000.93,0000.03,0000.24,0000.57,-000.16,0000.10,0000.24,0000.19,0000.38,19.1,25.2,11.1,07.6,0677.6,31.0
2021-07-10T23:44:00Z,00000200,00000000,0000.43,0000.21,0000.11,0000.49,-000.05,-000.19,0000.04,-000.27,-000.24,19.1,25.2,11.1,07.6,0677.6,31.0
2021-07-10T23:45:00Z,00000200,00000000,0001.10,0000.27,-000.37,0000.29,0000.25,0000.23,-000.14,0000.15,-000.03,19.1,25.2,11.0,07.6,0677.6,31.0
2021-07-10T23:46:00Z,00000200,00000000,0000.63,0000.49,0000.27,0000.22,-000.02,0000.07,0000.09,0000.05,0000.51,19.1,25.2,11.0,07.6,0677.6,31.1
2021-07-10T23:47:00Z,00000200,00000000,0000.69,0000.19,0000.22,0000.72,0000.07,-000.06,-000.05,-000.10,-000.39,19.1,25.2,11.0,07.6,0677.7,31.0
2021-07-10T23:48:00Z,00000200,00000000,-000.02,0000.19,0000.25,0000.54,-000.09,0000.13,-000.02,-000.00,0000.10,19.1,25.2,10.9,07.5,0677.6,31.0
2021-07-10T23:49:00Z,00000200,00000000,0001.14,0000.27,-000.11,-000.06,0000.24,0000.14,-000.09,-000.02,-000.40,19.0,25.2,10.8,07.5,0677.6,31.0
2021-07-10T23:50:00Z,00000200,00000000,0000.48,0000.27,-000.18,0000.19,0000.05,-000.02,0000.07,-000.03,0000.17,19.0,25.2,10.8,07.4,0677.6,31.1
2021-07-10T23:51:00Z,00000200,00000000,0000.59,0000.44,0000.11,0000.26,0000.23,0000.00,0000.05,-000.07,0000.08,19.0,25.2,10.8,07.4,0677.6,31.0
2021-07-10T23:52:00Z,00000200,00000000,0000.79,-000.25,0000.17,-000.45,0000.11,-000.33,0000.19,0000.04,0000.11,19.0,25.2,10.9,07.5,0677.6,31.1
2021-07-10T23:53:00Z,00000200,00000000,0000.90,0000.20,0000.33,-000.16,-000.02,0000.30,-000.15,0000.23,-000.25,19.0,25.2,11.0,07.5,0677.6,31.1
2021-07-10T23:54:00Z,00000200,00010000,0000.63,0000.15,0000.32,0000.06,0000.30,0000.03,0000.10,-000.52,0000.27,19.0,25.2,10.9,07.4,0677.6,31.1
2021-07-10T23:55:00Z,00000200,00000000,0000.51,0000.23,0000.07,-000.37,0000.12,0000.09,-000.31,0000.48,-000.47,19.0,25.2,10.8,07.4,0677.6,31.1
2021-07-10T23:56:00Z,00000200,00000000,0001.94,0000.06,-000.19,-000.25,0000.00,-000.07,0000.20,-000.07,0000.35,19.0,25.2,10.9,07.5,0677.6,31.1
2021-07-10T23:57:00Z,00000200,40000000,,,,,,,0000.23,0000.12,0000.11,19.1,25.2,10.7,07.4,0677.7,31.1
2021-07-10T23:58:00Z,00000200,60000000,,,,,,,-000.24,-000.02,-000.21,18.8,25.3,10.8,07.3,0676.7,31.1
2021-07-10T23:59:00Z,00000200,20000000,,,,,,,-000.01,-000.34,0000.08,18.8,25.4,10.8,07.2,0676.6,31.1
